N1OTX Weather Reports


time (UTC)temp
C
wind
direction
speed
KPH
gust
KPH
rain 1hr
cm
rain 24hr
cm
rain mn
cm
humidity
%
barometer
mb
20260506034028 17 201 3.2 17.7 0.00 0.00 0.00 61 1009.9
20260506033528 17 214 3.2 11.3 0.00 0.00 0.00 60 1009.8
20260506033027 17 213 4.8 24.1 0.00 0.00 0.00 60 1009.9
20260506032528 17 245 3.2 16.1 0.00 0.00 0.00 60 1009.8
20260506032027 17 240 1.6 12.9 0.00 0.00 0.00 60 1009.8
20260506031527 17 228 3.2 14.5 0.00 0.00 0.00 60 1009.8
20260506031027 17 198 3.2 16.1 0.00 0.00 0.00 60 1009.7
20260506030527 17 210 4.8 12.9 0.00 0.00 0.00 59 1009.7
20260506030029 17 234 3.2 12.9 0.00 0.00 0.00 59 1009.8
20260506025528 17 236 1.6 11.3 0.00 0.00 0.00 59 1009.8
20260506025028 17 224 4.8 25.7 0.00 0.00 0.00 58 1009.8
20260506024528 17 224 3.2 16.1 0.00 0.00 0.00 58 1009.8
20260506024028 17 207 4.8 22.5 0.00 0.00 0.00 58 1009.8
20260506023528 17 225 4.8 16.1 0.00 0.00 0.00 58 1009.8
20260506023028 18 231 3.2 17.7 0.00 0.00 0.00 57 1009.8
20260506022527 18 150 4.8 17.7 0.00 0.00 0.00 57 1009.8
20260506022027 18 234 3.2 20.9 0.00 0.00 0.00 57 1009.7
20260506021527 18 211 4.8 16.1 0.00 0.00 0.00 56 1009.7
20260506021027 18 187 1.6 12.9 0.00 0.00 0.00 57 1009.7
20260506020527 18 259 1.6 17.7 0.00 0.00 0.00 56 1009.7
20260506020027 18 64 6.4 22.5 0.00 0.00 0.00 55 1009.7
20260506015527 18 241 3.2 22.5 0.00 0.00 0.00 55 1009.6
20260506015027 18 212 3.2 11.3 0.00 0.00 0.00 55 1009.7
20260506014528 18 216 4.8 16.1 0.00 0.00 0.00 54 1009.7
20260506014028 18 208 6.4 17.7 0.00 0.00 0.00 54 1009.6
20260506013528 18 193 6.4 22.5 0.00 0.00 0.00 54 1009.6
20260506013028 18 264 3.2 22.5 0.00 0.00 0.00 54 1009.4
20260506012548 19 221 4.8 20.9 0.00 0.00 0.00 54 1009.4
20260506012048 19 211 6.4 20.9 0.00 0.00 0.00 54 1009.2
20260506011527 19 177 3.2 11.3 0.00 0.00 0.00 55 1009.2
20260506011028 19 230 4.8 16.1 0.00 0.00 0.00 55 1009.2
20260506010528 19 201 3.2 16.1 0.00 0.00 0.00 55 1009.0
20260506010027 19 203 3.2 14.5 0.00 0.00 0.00 55 1009.0
20260506005547 19 197 4.8 17.7 0.00 0.00 0.00 55 1009.0
20260506005027 19 206 4.8 17.7 0.00 0.00 0.00 55 1009.1
20260506004527 18 194 3.2 14.5 0.00 0.00 0.00 55 1009.0
20260506004027 19 203 3.2 22.5 0.00 0.00 0.00 55 1008.9
20260506003526 19 206 4.8 22.5 0.00 0.00 0.00 55 1008.8
20260506003029 19 194 3.2 11.3 0.00 0.00 0.00 55 1008.8
20260506002528 19 190 3.2 11.3 0.00 0.00 0.00 55 1008.6
20260506002028 18 157 3.2 11.3 0.00 0.00 0.00 55 1008.6
20260506001528 19 230 1.6 9.7 0.00 0.00 0.00 55 1008.3
20260506001028 19 216 3.2 14.5 0.00 0.00 0.00 54 1008.3
20260506000608 19 221 3.2 14.5 0.00 0.00 0.00 54 1008.1
20260506000028 19 201 4.8 17.7 0.00 0.00 0.00 53 1008.0
20260505235527 19 240 3.2 17.7 0.00 0.00 0.00 53 1008.0
20260505235047 20 197 4.8 14.5 0.00 0.00 0.00 53 1007.9
20260505234527 20 213 3.2 16.1 0.00 0.00 0.00 53 1007.7
20260505234027 20 173 4.8 22.5 0.00 0.00 0.00 52 1007.7
20260505233527 20 219 4.8 16.1 0.00 0.00 0.00 51 1007.7
20260505233027 21 242 4.8 17.7 0.00 0.00 0.00 50 1007.6
20260505232527 21 222 4.8 17.7 0.00 0.00 0.00 49 1007.5
20260505232027 21 226 4.8 17.7 0.00 0.00 0.00 48 1007.6
20260505231528 21 235 4.8 17.7 0.00 0.00 0.00 48 1007.4
20260505231029 21 178 3.2 12.9 0.00 0.00 0.00 48 1007.4
20260505230528 21 226 4.8 14.5 0.00 0.00 0.00 48 1007.4
20260505230028 21 248 4.8 12.9 0.00 0.00 0.00 48 1007.1
20260505225528 21 192 4.8 16.1 0.00 0.00 0.00 48 1007.1
20260505225027 22 184 4.8 22.5 0.00 0.00 0.00 48 1007.0
20260505224528 22 219 4.8 22.5 0.00 0.00 0.00 48 1006.9
20260505224027 22 206 6.4 20.9 0.00 0.00 0.00 47 1006.8
20260505223527 22 195 6.4 16.1 0.00 0.00 0.00 47 1006.7
20260505223027 22 211 6.4 16.1 0.00 0.00 0.00 47 1006.5
20260505222527 22 248 4.8 16.1 0.00 0.00 0.00 47 1006.4
20260505222027 22 198 4.8 20.9 0.00 0.00 0.00 47 1006.4
20260505221547 22 230 6.4 20.9 0.00 0.00 0.00 47 1006.5
20260505221027 22 203 8.0 37.0 0.00 0.00 0.00 46 1006.8
20260505220607 22 191 8.0 22.5 0.00 0.00 0.00 46 1006.8
20260505220048 22 182 4.8 25.7 0.00 0.00 0.00 47 1006.8
20260505215528 22 167 4.8 24.1 0.00 0.00 0.00 47 1006.8
20260505215028 22 206 4.8 17.7 0.00 0.00 0.00 46 1006.8
20260505214528 22 215 9.7 24.1 0.00 0.00 0.00 46 1006.7
20260505214028 23 208 8.0 24.1 0.00 0.00 0.00 45 1006.6
20260505213528 23 158 4.8 24.1 0.00 0.00 0.00 45 1006.6
20260505213028 23 217 4.8 24.1 0.00 0.00 0.00 45 1006.5
20260505212528 23 188 8.0 27.4 0.00 0.00 0.00 44 1006.4
20260505212048 23 208 6.4 27.4 0.00 0.00 0.00 44 1006.3
20260505211527 24 189 6.4 17.7 0.00 0.00 0.00 43 1006.2
20260505211047 24 226 9.7 24.1 0.00 0.00 0.00 42 1006.2
20260505210527 24 237 4.8 17.7 0.00 0.00 0.00 42 1006.1
20260505210027 25 213 6.4 24.1 0.00 0.00 0.00 41 1006.2
20260505205527 25 210 6.4 33.8 0.00 0.00 0.00 41 1006.2
20260505205026 25 252 6.4 33.8 0.00 0.00 0.00 41 1006.1
20260505204528 25 243 4.8 20.9 0.00 0.00 0.00 41 1006.0
20260505204029 25 167 6.4 29.0 0.00 0.00 0.00 40 1005.9
20260505203528 25 250 6.4 24.1 0.00 0.00 0.00 39 1006.1
20260505203028 26 229 6.4 22.5 0.00 0.00 0.00 39 1006.1
20260505202528 26 211 6.4 17.7 0.00 0.00 0.00 39 1006.1
20260505202028 26 195 8.0 37.0 0.00 0.00 0.00 38 1006.0
20260505201653 26 174 8.0 25.7 0.00 0.00 0.00 38 1006.1
20260505201028 26 210 6.4 24.1 0.00 0.00 0.00 39 1006.1
20260505200527 27 204 8.0 27.4 0.00 0.00 0.00 38 1005.9
20260505200047 26 220 3.2 16.1 0.00 0.00 0.00 39 1006.0
20260505195527 26 206 6.4 29.0 0.00 0.00 0.00 38 1006.0
20260505195048 26 220 8.0 35.4 0.00 0.00 0.00 37 1006.1
20260505194527 27 276 6.4 25.7 0.00 0.00 0.00 37 1006.1
20260505194048 26 212 6.4 25.7 0.00 0.00 0.00 37 1006.1
20260505193527 27 208 8.0 22.5 0.00 0.00 0.00 37 1006.3
20260505193047 27 184 6.4 24.1 0.00 0.00 0.00 37 1006.3
20260505192547 27 225 9.7 35.4 0.00 0.00 0.00 37 1006.4
20260505192029 27 199 6.4 20.9 0.00 0.00 0.00 37 1006.4
20260505191528 27 206 6.4 20.9 0.00 0.00 0.00 36 1006.5
20260505191028 27 209 8.0 30.6 0.00 0.00 0.00 36 1006.4
20260505190528 27 182 6.4 24.1 0.00 0.00 0.00 36 1006.4
20260505190028 27 215 4.8 24.1 0.00 0.00 0.00 38 1006.5
20260505185527 27 190 6.4 16.1 0.00 0.00 0.00 38 1006.6
20260505185047 27 213 4.8 20.9 0.00 0.00 0.00 39 1006.8
20260505184528 27 255 6.4 27.4 0.00 0.00 0.00 39 1006.9
20260505184028 27 179 6.4 25.7 0.00 0.00 0.00 39 1007.0
20260505183528 27 193 4.8 16.1 0.00 0.00 0.00 39 1007.1
20260505183048 27 197 8.0 25.7 0.00 0.00 0.00 39 1007.1
20260505182528 27 207 6.4 29.0 0.00 0.00 0.00 39 1007.2
20260505182028 27 253 8.0 29.0 0.00 0.00 0.00 38 1007.3
20260505181528 27 243 6.4 25.7 0.00 0.00 0.00 38 1007.2
20260505181028 27 202 6.4 25.7 0.00 0.00 0.00 38 1007.3
20260505180528 27 198 8.0 20.9 0.00 0.00 0.00 38 1007.2
20260505180027 27 213 6.4 25.7 0.00 0.00 0.00 38 1007.2
20260505175547 27 180 8.0 30.6 0.00 0.00 0.00 37 1007.3
20260505175027 28 211 6.4 30.6 0.00 0.00 0.00 37 1007.5
20260505174527 27 258 6.4 17.7 0.00 0.00 0.00 36 1007.6
20260505174027 27 211 6.4 20.9 0.00 0.00 0.00 37 1007.6
20260505173547 27 187 6.4 20.9 0.00 0.00 0.00 38 1007.5
20260505173026 27 222 6.4 16.1 0.00 0.00 0.00 36 1007.8
20260505172528 27 209 4.8 17.7 0.00 0.00 0.00 36 1007.8
20260505172028 27 264 4.8 24.1 0.00 0.00 0.00 37 1007.8
20260505171528 27 262 4.8 24.1 0.00 0.00 0.00 36 1007.8
20260505171028 27 217 9.7 29.0 0.00 0.00 0.00 36 1008.0
20260505170528 26 217 4.8 17.7 0.00 0.00 0.00 38 1008.0
20260505170048 26 128 4.8 17.7 0.00 0.00 0.00 38 1008.1
20260505165527 26 228 6.4 16.1 0.00 0.00 0.00 39 1008.3
20260505165027 26 234 4.8 22.5 0.00 0.00 0.00 39 1008.3
20260505164529 26 194 6.4 22.5 0.00 0.00 0.00 39 1008.4
20260505164029 26 246 3.2 11.3 0.00 0.00 0.00 40 1008.4
20260505163529 26 180 4.8 14.5 0.00 0.00 0.00 37 1008.6
20260505163029 26 173 4.8 24.1 0.00 0.00 0.00 37 1008.8
20260505162549 26 149 1.6 11.3 0.00 0.00 0.00 39 1008.8
20260505162028 25 250 4.8 17.7 0.00 0.00 0.00 39 1009.1
20260505161528 25 188 4.8 17.7 0.00 0.00 0.00 38 1009.1
20260505161029 25 221 4.8 14.5 0.00 0.00 0.00 39 1009.2
20260505160528 25 247 3.2 17.7 0.00 0.00 0.00 40 1009.1
20260505153029 23 224 1.6 4.8 0.00 0.00 0.00 45 1009.5
20260505152529 23 275 1.6 6.4 0.00 0.00 0.00 44 1009.5
20260505152029 23 253 3.2 14.5 0.00 0.00 0.00 44 1009.5
20260505151528 23 167 4.8 14.5 0.00 0.00 0.00 44 1009.6
20260505151030 23 273 3.2 12.9 0.00 0.00 0.00 48 1009.6
20260505150530 22 203 3.2 14.5 0.00 0.00 0.00 50 1009.7
20260505140529 19 230 3.2 11.3 0.00 0.00 0.00 57 1009.9
20260505125029 17 291 3.2 11.3 0.00 0.00 0.00 61 1010.0
20260505124528 17 263 3.2 6.4 0.00 0.00 0.00 63 1010.1
20260505123629 17 209 3.2 11.3 0.00 0.00 0.00 64 1010.0
20260505123050 17 266 3.2 11.3 0.00 0.00 0.00 63 1010.0
20260505122551 17 205 1.6 9.7 0.00 0.00 0.00 64 1010.0
20260505122030 16 220 3.2 9.7 0.00 0.00 0.00 65 1009.9
20260505121530 16 246 3.2 9.7 0.00 0.00 0.00 64 1010.0
20260505121030 16 108 1.6 11.3 0.00 0.00 0.00 65 1010.0
20260505120530 16 228 3.2 11.3 0.00 0.00 0.00 65 1009.7
20260505120030 16 205 3.2 16.1 0.00 0.00 0.00 66 1009.7
20260505115550 16 202 3.2 16.1 0.00 0.00 0.00 67 1009.9
20260505115030 16 215 4.8 11.3 0.00 0.00 0.00 67 1009.9
20260505114530 15 207 3.2 6.4 0.00 0.00 0.00 67 1009.9
20260505114030 15 198 3.2 9.7 0.00 0.00 0.00 69 1009.9
20260505113530 15 176 1.6 11.3 0.00 0.00 0.00 71 1009.8
20260505113030 15 213 3.2 11.3 0.00 0.00 0.00 71 1009.8
20260505112528 14 165 1.6 4.8 0.00 0.00 0.00 71 1009.8
20260505112030 14 214 1.6 6.4 0.00 0.00 0.00 72 1009.8
20260505111530 14 184 1.6 6.4 0.00 0.00 0.00 73 1009.8
20260505111110 13 168 1.6 4.8 0.00 0.00 0.00 74 1009.9
20260505110530 13 198 1.6 4.8 0.00 0.00 0.00 75 1010.0
20260505102030 11 193 1.6 6.4 0.00 0.00 0.00 80 1009.8
20260505101530 11 176 3.2 12.9 0.00 0.00 0.00 80 1009.7
20260505101030 11 186 3.2 12.9 0.00 0.00 0.00 80 1009.7
20260505100549 11 190 3.2 9.7 0.00 0.00 0.00 79 1009.8
20260505100050 11 183 1.6 9.7 0.00 0.00 0.00 79 1009.8
20260505095529 11 185 3.2 9.7 0.00 0.00 0.00 79 1009.7
20260505095029 11 183 1.6 9.7 0.00 0.00 0.00 79 1009.8
20260505094529 11 194 1.6 6.4 0.00 0.00 0.00 79 1009.9
20260505094029 11 209 3.2 11.3 0.00 0.00 0.00 79 1009.8
20260505093529 11 191 1.6 6.4 0.00 0.00 0.00 78 1009.8
20260505093029 11 201 1.6 6.4 0.00 0.00 0.00 78 1009.8
20260505092530 11 199 1.6 9.7 0.00 0.00 0.00 78 1009.7
20260505092030 11 185 1.6 6.4 0.00 0.00 0.00 78 1009.8
20260505091530 11 169 1.6 6.4 0.00 0.00 0.00 78 1009.8
20260505091050 11 196 1.6 9.7 0.00 0.00 0.00 77 1009.8
20260505090530 11 188 3.2 12.9 0.00 0.00 0.00 77 1009.8
20260505090050 11 183 1.6 4.8 0.00 0.00 0.00 76 1009.8
20260505085529 11 174 1.6 9.7 0.00 0.00 0.00 76 1009.9
20260505085034 11 217 1.6 9.7 0.00 0.00 0.00 76 1010.0
20260505084529 11 200 1.6 6.4 0.00 0.00 0.00 76 1010.0
20260505084029 11 207 1.6 6.4 0.00 0.00 0.00 76 1010.1
20260505083529 11 231 1.6 11.3 0.00 0.00 0.00 76 1010.1
20260505083049 11 219 1.6 11.3 0.00 0.00 0.00 76 1010.0
20260505082529 11 205 1.6 4.8 0.00 0.00 0.00 76 1010.1
20260505082048 11 191 1.6 11.3 0.00 0.00 0.00 75 1010.0
20260505081528 11 229 0.0 9.7 0.00 0.00 0.00 75 1009.9
20260505081030 11 190 1.6 9.7 0.00 0.00 0.00 75 1009.9
20260505080530 11 216 1.6 4.8 0.00 0.00 0.00 75 1010.0
20260505080030 11 184 0.0 3.2 0.00 0.00 0.00 74 1010.1
20260505075530 11 196 1.6 9.7 0.00 0.00 0.00 74 1010.1
20260505075030 11 184 0.0 6.4 0.00 0.00 0.00 74 1010.1
20260505074529 11 213 0.0 3.2 0.00 0.00 0.00 74 1010.0
20260505074029 11 193 1.6 6.4 0.00 0.00 0.00 74 1010.2
20260505073529 11 188 1.6 12.9 0.00 0.00 0.00 74 1010.1
20260505073029 11 168 1.6 6.4 0.00 0.00 0.00 74 1010.1
20260505072530 11 190 1.6 9.7 0.00 0.00 0.00 74 1010.1
20260505072030 11 200 1.6 4.8 0.00 0.00 0.00 73 1010.1
20260505071530 11 171 0.0 3.2 0.00 0.00 0.00 73 1010.1
20260505071030 11 154 0.0 11.3 0.00 0.00 0.00 73 1010.1
20260505070530 11 209 1.6 11.3 0.00 0.00 0.00 73 1010.3
20260505070029 11 173 1.6 4.8 0.00 0.00 0.00 73 1010.2
20260505065529 11 218 1.6 6.4 0.00 0.00 0.00 73 1010.3
20260505065028 11 203 1.6 4.8 0.00 0.00 0.00 72 1010.3
20260505064528 11 198 0.0 4.8 0.00 0.00 0.00 72 1010.3
20260505064050 11 171 1.6 12.9 0.00 0.00 0.00 72 1010.3
20260505063530 11 169 0.0 4.8 0.00 0.00 0.00 72 1010.3
20260505063030 11 141 0.0 4.8 0.00 0.00 0.00 72 1010.3
20260505062530 11 152 0.0 3.2 0.00 0.00 0.00 72 1010.4
20260505062050 11 191 0.0 3.2 0.00 0.00 0.00 72 1010.4
20260505061529 11 211 1.6 6.4 0.00 0.00 0.00 71 1010.3
20260505061029 11 217 0.0 3.2 0.00 0.00 0.00 70 1010.3
20260505060529 11 196 0.0 4.8 0.00 0.00 0.00 70 1010.4
20260505060029 11 210 1.6 4.8 0.00 0.00 0.00 69 1010.3
20260505055529 12 261 0.0 4.8 0.00 0.00 0.00 69 1010.3
20260505055029 12 290 0.0 1.6 0.00 0.00 0.00 68 1010.3
20260505054529 12 180 0.0 4.8 0.00 0.00 0.00 68 1010.4
20260505054029 12 204 1.6 6.4 0.00 0.00 0.00 67 1010.5
20260505053531 12 159 0.0 6.4 0.00 0.00 0.00 67 1010.4
20260505053030 12 215 1.6 6.4 0.00 0.00 0.00 67 1010.4
20260505052530 12 224 1.6 4.8 0.00 0.00 0.00 66 1010.4
20260505052030 12 223 1.6 6.4 0.00 0.00 0.00 66 1010.5
20260505051530 12 197 1.6 6.4 0.00 0.00 0.00 65 1010.4
20260505051030 12 210 1.6 9.7 0.00 0.00 0.00 65 1010.4
20260505050530 12 202 4.8 12.9 0.00 0.00 0.00 65 1010.5
20260505041551 13 204 3.2 16.1 0.00 0.00 0.00 61 1010.5
20260505041030 13 208 3.2 16.1 0.00 0.00 0.00 61 1010.5
20260505040530 13 204 3.2 12.9 0.00 0.00 0.00 61 1010.5
20260505040030 13 179 1.6 6.4 0.00 0.00 0.00 61 1010.4
20260505035530 13 180 1.6 4.8 0.00 0.00 0.00 60 1010.3
20260505035030 13 184 1.6 6.4 0.00 0.00 0.00 59 1010.4
20260505034529 13 224 1.6 11.3 0.00 0.00 0.00 59 1010.4